Showing default

HJS-6D, 63431

Orbit data source: Space-Track

HJS-6D, 63431 is a payload satellite owned by Zhongguo Xingwang (CN) in LEO that was launched on Tue, 01 Apr 2025 UTC via a CHANG ZHENG 2D launch vehicle from the Jiuquan Satellite Launch Center, China (JSC). Payload-class satellites include a variety of spacecraft equipped with specific instruments for various scientific and technological missions. These include communications satellites like Starlink; space stations such as the ISS; scientific satellites like the Hubble; Earth observation satellites from companies like Planet Labs, Umbra, and HawkEye 360; GPS; miniature CubeSats for education and research; and military/defense satellites.

Loading next visibility...
Identifier
63431, 2025-067D
Orbit
LEO
Country
Flag of CNCN / PRC
Related business
Manufacturer
Changguang WJ
Mission
Operational Civil Communications
Bus & Motor
Unknown
Mass
~300 kg wet, ~300 kg dry
Launch date (UTC)
2025-04-01 (1 year ago)
Launch vehicle
CHANG ZHENG 2D
Launch site
Jiuquan Satellite Launch Center, China (JSC)
Object type
Payload
Rocket body
Debris
Shape & HBR
Box + 2 Pan, 1.1 m
Radar Cross Section
2.320 m², Large (>1 m²)

Expand to show TLE details & history
Last TLE update: 2 days ago

TLE from 2 days ago
0 HJS-6D
1 63431U 25067D   26122.77605037  .00022991  00000-0  80092-3 0  9990
2 63431  54.9902 227.8225 0004590 187.7457 172.3497 15.29612535 61002
Epoch: 2026-05-02T18:37Z
TLE epoch observation values (Epoch: 2026-05-02T18:37:30.751Z)
Latitude
-0.00003°
Longitude
87.75524°
Altitude
481.182 km
Speed
7.624 km/s
True Right ascension
15h 11m 17s
True Declination
0° 00' 00"
Sunlit
Object was in full shadow at epoch
Visualization orbit readout
Latitude
Unknown
Longitude
Unknown
Altitude
Unknown
Speed
Unknown
Apparent Right ascension
Unknown
Apparent Declination
Unknown
Sunlit
N/A
Visualization observer readout
Local Sidereal Time
18:46:06
Azimuth
Unknown
Elevation
Unknown
Doppler factor
Unknown
Orbital elements
Apogee altitude
480.08 km
Perigee altitude
473.787 km
Semi-major axis
6,855.071 km
Eccentricity
0.00046
Inclination
54.9902°
RAAN
227.8225°
Arg. of periapsis
187.7457°
True anomaly
172.3567°
Mean anomaly
172.3497°
Eccentric anomaly
172.3532°
Mean motion
3.82407 °/min
Orbital period
94.14 mins
BSTAR
0.00080092
Loading maneuver chart data...
Computing Atmospheric mass density...
Loading historical data...
Loading historical data...
Loading historical data...
Loading historical data...
Loading historical data...
Loading historical data...
Loading historical data...
Other satellites on launch #67 in the year 2025 (2025-04-01 UTC)

Documentation

Showing up to 5 results
|